GW0435 Weather Reports


time (UTC)temp
C
wind
direction
speed
KPH
gust
KPH
rain 1hr
cm
rain 24hr
cm
rain mn
cm
humidity
%
barometer
mb
20260508033029 12 248 1.6 4.8 0.00 0.00 0.00 15 1008.9
20260508031524 13 248 1.6 6.4 0.00 0.00 0.00 13 1008.6
20260508030021 13 248 3.2 12.9 0.00 0.00 0.00 13 1008.5
20260508024515 14 248 3.2 17.7 0.00 0.00 0.00 12 1008.2
20260508023011 15 248 11.3 20.9 0.00 0.00 0.00 11 1007.9
20260508021518 15 248 9.7 16.1 0.00 0.00 0.00 10 1007.9
20260508020002 16 248 11.3 19.3 0.00 0.00 0.00 10 1007.7
20260508014559 17 248 12.9 17.7 0.00 0.00 0.00 9 1007.8
20260508013053 18 248 12.9 22.5 0.00 0.00 0.00 9 1007.8
20260508011549 18 248 11.3 25.7 0.00 0.00 0.00 9 1007.7
20260508010044 18 265 14.5 20.9 0.00 0.00 0.00 9 1007.7
20260508004542 20 279 8.0 14.5 0.00 0.00 0.00 10 1007.9
20260508003038 20 279 4.8 17.7 0.00 0.00 0.00 10 1008.0
20260508001533 20 279 1.6 16.1 0.00 0.00 0.00 10 1008.2
20260508000027 20 279 3.2 14.5 0.00 0.00 0.00 10 1008.4
20260507234523 20 279 4.8 14.5 0.00 0.00 0.00 11 1008.5
20260507233030 20 281 3.2 20.9 0.00 0.00 0.00 13 1008.6
20260507231514 21 287 8.0 20.9 0.00 0.00 0.00 13 1008.6
20260507230010 20 287 6.4 19.3 0.00 0.00 0.00 15 1008.7
20260507224505 20 287 6.4 14.5 0.00 0.00 0.00 16 1008.9
20260507223001 20 290 8.0 20.9 0.00 0.00 0.00 17 1008.9
20260507221557 21 309 4.8 17.7 0.00 0.00 0.00 17 1009.4
20260507220053 20 309 8.0 17.7 0.00 0.00 0.00 15 1009.8
20260507214608 19 333 3.2 12.9 0.00 0.00 0.00 16 1010.1
20260507213051 20 333 4.8 16.1 0.00 0.00 0.00 14 1010.4
20260507211539 20 333 4.8 14.5 0.00 0.00 0.00 12 1010.7
20260507210048 20 333 6.4 14.5 0.00 0.00 0.00 11 1011.0
20260507204530 18 333 4.8 11.3 0.00 0.00 0.00 10 1011.4
20260507203026 18 333 4.8 17.7 0.00 0.00 0.00 8 1011.8
20260507201523 18 325 6.4 12.9 0.00 0.00 0.00 9 1011.9
20260507200019 17 324 8.0 17.7 0.00 0.00 0.00 8 1012.2
20260507194519 17 315 4.8 19.3 0.00 0.00 0.00 9 1012.2
20260507193015 17 346 9.7 17.7 0.00 0.00 0.00 10 1012.4
20260507191513 17 350 8.0 19.3 0.00 0.00 0.00 14 1012.6
20260507190011 16 350 8.0 24.1 0.00 0.00 0.00 15 1012.7
20260507184515 16 360 12.9 22.5 0.00 0.00 0.00 16 1012.8
20260507183004 15 360 11.3 22.5 0.00 0.00 0.00 16 1013.0
20260507181600 15 24 12.9 25.7 0.00 0.00 0.00 18 1013.2
20260507174553 13 5 11.3 25.7 0.00 0.00 0.00 25 1013.7
20260507173049 12 355 12.9 27.4 0.00 0.00 0.00 29 1014.0
20260507171550 12 17 16.1 27.4 0.00 0.00 0.00 33 1014.0
20260507170041 11 15 14.5 32.2 0.00 0.00 0.00 35 1014.1
20260507164536 10 20 12.9 29.0 0.00 0.00 0.00 42 1014.2
20260507163032 9 5 12.9 27.4 0.00 0.00 0.00 49 1014.4
20260507161534 7 5 16.1 27.4 0.00 0.00 0.00 51 1014.5
20260507160025 7 5 17.7 27.4 0.00 0.00 0.00 54 1014.7
20260507154529 6 5 16.1 30.6 0.00 0.00 0.00 55 1014.9
20260507153029 6 9 11.3 25.7 0.00 0.00 0.00 58 1015.0
20260507151511 5 355 14.5 25.7 0.00 0.00 0.00 59 1015.1
20260507150007 5 355 9.7 19.3 0.00 0.00 0.00 62 1015.0
20260507144502 5 350 9.7 17.7 0.00 0.00 0.00 66 1015.2
20260507143110 4 350 9.7 19.3 0.00 0.00 0.00 69 1015.4
20260507141553 4 265 9.7 16.1 0.00 0.00 0.00 71 1015.5
20260507140049 3 246 8.0 12.9 0.00 0.00 0.00 78 1015.7
20260507134545 2 246 6.4 9.7 0.00 0.00 0.00 80 1015.8
20260507133040 2 246 4.8 8.0 0.00 0.00 0.00 82 1015.8
20260507131546 1 246 1.6 6.4 0.00 0.00 0.00 85 1015.9
20260507130039 1 246 0.0 4.8 0.00 0.00 0.00 88 1016.0
20260507124529 0 246 3.2 6.4 0.00 0.00 0.00 89 1015.8
20260507123024 0 246 3.2 8.0 0.00 0.00 0.00 88 1015.8
20260507121521 0 246 1.6 4.8 0.00 0.00 0.00 88 1015.8
20260507120022 0 246 1.6 4.8 0.00 0.00 0.00 87 1015.7
20260507114517 0 246 1.6 4.8 0.00 0.00 0.00 85 1015.6
20260507113013 0 246 0.0 3.2 0.00 0.00 0.00 84 1015.5
20260507111514 0 246 0.0 1.6 0.00 0.00 0.00 84 1015.4
20260507110011 0 246 0.0 0.0 0.00 0.00 0.00 83 1015.4
20260507104510 0 246 0.0 1.6 0.00 0.00 0.00 83 1015.4
20260507103022 1 246 0.0 1.6 0.00 0.00 0.00 82 1015.6
20260507101509 0 246 0.0 1.6 0.00 0.00 0.00 82 1015.5
20260507100008 0 246 1.6 4.8 0.00 0.00 0.00 80 1015.5
20260507094505 0 246 0.0 3.2 0.00 0.00 0.00 79 1015.5
20260507093005 0 246 1.6 3.2 0.00 0.00 0.00 78 1015.5
20260507091503 0 246 0.0 3.2 0.00 0.00 0.00 76 1015.4
20260507090100 1 246 1.6 4.8 0.00 0.00 0.00 77 1015.3
20260507084602 1 246 0.0 3.2 0.00 0.00 0.00 81 1015.2
20260507083058 1 246 1.6 3.2 0.00 0.00 0.00 81 1015.2
20260507081554 1 246 0.0 1.6 0.00 0.00 0.00 80 1015.2
20260507080107 1 246 0.0 6.4 0.00 0.00 0.00 81 1015.1
20260507074552 1 246 0.0 8.0 0.00 0.00 0.00 82 1015.1
20260507073049 1 246 0.0 6.4 0.00 0.00 0.00 80 1014.8
20260507071606 2 246 1.6 6.4 0.00 0.00 0.00 80 1014.6
20260507070046 2 246 1.6 6.4 0.00 0.00 0.00 80 1014.6
20260507064544 2 246 3.2 6.4 0.00 0.00 0.00 79 1014.4
20260507063045 2 246 3.2 6.4 0.00 0.00 0.00 78 1014.2
20260507061540 2 246 3.2 6.4 0.00 0.00 0.00 77 1014.0
20260507060042 2 246 3.2 6.4 0.00 0.00 0.00 77 1013.7
20260507054535 2 246 1.6 6.4 0.00 0.03 0.00 76 1013.5
20260507053102 2 246 3.2 8.0 0.00 0.03 0.00 75 1013.5
20260507051541 3 246 3.2 9.7 0.00 0.03 0.00 72 1013.3
20260507050036 3 246 3.2 8.0 0.00 0.03 0.00 67 1013.3
20260507044532 4 246 1.6 6.4 0.00 0.05 0.00 65 1013.2
20260507043031 4 246 1.6 4.8 0.00 0.05 0.00 64 1013.0
20260507041529 5 246 1.6 6.4 0.00 0.05 0.00 60 1012.9
20260507040028 5 246 1.6 4.8 0.00 0.05 0.00 57 1012.6
20260507034534 6 246 3.2 6.4 0.00 0.08 0.00 53 1012.5